Weather in Muli

Maldives     2°55′15″N   73°34′50″E
temp.,
°C
wind,
m/s
gust,
m/s
humid.,
%
clouds,
%
prec.,
mm/h
press.,
hPa
HPBL,
m
10 august, wed
wed1023:00+28wsw4578100 0.2 1009750
02:00+27w4579100 0.4 1008703
05:00+27w3477100 1.8 1008617
08:00+27wnw3476100 0.6 1009555
11:00+28nw347491 0.6 1009627
14:00+28nw4474100 0.0 1006689
17:00+28nw447532 0.0 1007748
20:00+28nw347640 0.0 1008777
11 august, thu
thu1123:00+27nw22795 0.8 1009143
02:00+27nw22785 0.8 1008385
05:00+27nw22794 2.0 1008151
08:00+27nnw11755 0.5 1010350
11:00+27nne117437 0.5 1009500
14:00+28ene11725 0.0 1008644
17:00+28n1271100 0.0 1008668
20:00+28nne11725 0.0 1010574
12 august, fri
fri1223:00+27ese227542 0.3 1011262
02:00+27ese227617 0.3 1009565
05:00+27ese337646 0.3 1009616
08:00+27e227612 0.0 1011568
11:00+28ese327615 0.0 1010658
14:00+28ese227425 0.0 1008721
17:00+28ene22736 0.1 1008474
20:00+28ene22745 0.1 1010656
13 august, sat
sat1323:00+28e337532 0.1 1011613
02:00+27e2377100 0.8 1009571
05:00+27ese3378100 1.4 1009509
08:00+27ese2277100 0.1 1010496
11:00+27ese2275100 0.1 1010555
14:00+27e117394 0.0 1008635
17:00+28e2272100 0.0 1009728
20:00+28e1173100 0.0 1010619
14 august, sun
sun1423:00+27ene1174100 0.0 1010552
02:00+27e117581 0.0 1009554
05:00+27e227630 0.3 1009523
08:00+27ene227520 0.0 1011482
11:00+27ene227419 0.0 1011597
14:00+28ne227233 0.0 1009617
17:00+28ene2272100 0.0 1009733
20:00+28ene2273100 0.0 1010729